Location: Perryvale
(54.4667°N, 113.3833°W)
Time: 22:34:59
(UTC+00:00)

Vanguard 1 Rocket - Pass Details

Date: 22 May 2024
Orbit: 649 x 4221 km, 34.3° (Epoch: 13 June)

Event Time Altitude Azimuth Distance (km) Brightness Sun altitude
Rises 13:47:47 0° 182° (S) 8,367 12.2 19.1°
Reaches altitude 10° 14:00:30 10° 157° (SSE) 6,773 12.1 20.9°
Maximum altitude 14:06:05 12° 142° (SE) 6,229 12.2 21.7°
Drops below altitude 10° 14:11:03 10° 126° (SE) 5,933 12.4 22.5°
Sets 14:19:29 0° 99° (E) 6,046 12.9 23.7°
